447  
ASUS43 KIWX 241410  
RWRIWX  
 
KIWX WEATHER ROUNDUP  
NATIONAL WEATHER SERVICE NORTHERN INDIANA  
1000 AM EDT MON JUL 24 2017  
 
NOTE: "FAIR" INDICATES FEW OR NO CLOUDS BELOW 12,000 FEET WITH NO  
SIGNIFICANT WEATHER AND/OR S TO VISIBILITY
.  
 
* THESE STATIONS ARE NOT UNDER NWS QUALITY CONTROL. THEY ALSO MAY NOT  
REPORT WEATHER SUCH AS PRECIPITATION OR FOG.
 
 
INZ001>027-241500-  
NORTHERN INDIANA  
 
CITY SKY/WX TMP DP RH WIND PRES REMARKS
 
GARY* PTSUNNY 72 61 68 N14G25 30.00R  
VALPARAISO PTSUNNY 71 63 75 VRB7 29.99R  
MICHIGAN CITY* PTSUNNY 70 61 73 N13G18 29.99S  
LAPORTE* CLOUDY 70 62 77 N15G21 29.99R  
KNOX* MOSUNNY 70 63 78 N8 29.97S  
SOUTH BEND CLOUDY 68 61 78 N12 29.98R  
ELKHART* PTSUNNY 70 61 73 N12 29.98R  
GOSHEN PTSUNNY 68 58 70 N6 29.97R  
MONTICELLO* CLOUDY 69 65 88 N9 29.97R  
LOGANSPORT* MOSUNNY 68 63 83 N8 29.98R  
ROCHESTER* SUNNY 72 63 73 N9 29.97S  
WARSAW* MOSUNNY 68 61 77 N9 29.97R  
AUBURN* CLOUDY 66 61 82 N6 29.97R  
FORT WAYNE CLOUDY 69 62 78 N10 29.96R  
HUNTINGTON* PTSUNNY 68 65 88 N6 29.96R  
PERU/GRISSOM SUNNY 72 64 76 N12 29.96R  
MARION* CLOUDY 72 64 78 NW7 29.97R  
 

 
INZ028>050-241500-  
CENTRAL INDIANA  
 
CITY SKY/WX TMP DP RH WIND PRES REMARKS
 
LAFAYETTE PTSUNNY 73 66 78 N10 29.97R  
KOKOMO* N/A 73 65 75 N10 29.98  
MUNCIE* MOSUNNY 74 66 76 N7 29.96R  
INDIANAPOLIS MOSUNNY 74 66 76 N7 29.95R  
 

 
MIZ043>046-050>051-056>058-064>065-071>073-077>080-241500-  
SOUTHWEST LOWER MICHIGAN  
 
CITY SKY/WX TMP DP RH WIND PRES REMARKS
 
BATTLE CREEK CLOUDY 65 57 75 N13 29.99R  
BENTON HARBOR CLOUDY 67 58 72 VRB6 29.99R  
COLDWATER* CLOUDY 65 61 87 N10 29.97R  
HILLSDALE* CLOUDY 63 55 77 NW13 29.96R  
HOLLAND CLOUDY 66 55 67 VRB6 30.01R  
GRAND RAPIDS PTSUNNY 67 55 65 N15 30.00R  
KALAMAZOO CLOUDY 67 56 67 N9 29.99R  
STURGIS* CLOUDY 64 61 88 N8 29.97R  
THREE RIVERS* CLOUDY 66 60 80 N8 29.98R  
 

 
OHZ001>008-015>018-024>025-241500-  
NORTHWEST OHIO  
 
CITY SKY/WX TMP DP RH WIND PRES REMARKS
 
WAUSEON* CLOUDY 68 61 77 N10G16 29.94R  
DEFIANCE CLOUDY N/A N/A N/A NW12 29.95R  
FINDLAY CLOUDY 71 62 73 NW13 29.92R  
TOLEDO EXPRESS CLOUDY 65 61 87 NW9 29.93R  
TOLEDO METCALF CLOUDY 68 61 78 N10 29.94R  
LIMA PTSUNNY 71 67 87 N10 29.93R  
 

 
AND FOR LAKE MICHIGAN COASTAL AND OPEN LAKE BUOY OBSERVATIONS  
 
STATION/POSITION TEMP WIND PRES VSBY WAVE
 
AIR SEA DIR/SP/G HT/PER  
(F) (DEG/KT/KT) (MB) (MI) (FT/S)  
CALUMET HARBOR 70 360/ 12/ 17 1015.5R  
MICHIGAN CITY 68 10/ 19/ 22 N/A  
BURNS HARBOR 70 20/ 18/ 21 1015.6S  
SAINT JOSEPH 67 40/ 5/ 13 1015.6  
SOUTH LAKE BUOY 66 70 20/ 17/ 21 1015.9R 4/ 7  
4 MI NW BRIDGMAN 68 73 50/ 16/ 21 1015.4 5/ 6  
MICHIGAN CITY 69 74 30/ 14/ 19 N/A 5/ 7  
 

 

 
 
 
CLICK HERE TO GO TO PREVIOUS BULLETINS.

The Nexlab IN Page
The Nexlab OH Page
The Nexlab MI Page Main Text Page